Tracking 31027 objects as of 19-Jul-2025
HD Live streaming from Space Station
objects crossing your sky now

STARLINK-32082

Track STARLINK-32082 now!
10-day predictions
STARLINK-32082 is classified as:


NORAD ID: 60346
Int'l Code: 2024-136T
Perigee: 481.4 km
Apogee: 483.4 km
Inclination: 53.2 °
Period: 94.1 minutes
Semi major axis: 6853 km
RCS: Unknown
Launch date: August 2, 2024
Source: United States (US)
Launch site: AIR FORCE EASTERN TEST RANGE (AFETR)
Your satellite tracking list
STARLINK-30103
Track 1 satellite(s)




NASA's NSSDC Master Catalog

Two Line Element Set (TLE):
1 60346U 24136T   25199.38553302  .00000150  00000-0  17186-4 0  9993
2 60346  53.1604  83.8337 0001420  82.4089 277.7072 15.30185762 53794
Source of the keplerian elements: AFSPC